TimeEDT,TemperatureF,Dew PointF,Humidity,Sea Level PressureIn,VisibilityMPH,Wind Direction,Wind SpeedMPH,Gust SpeedMPH,PrecipitationIn,Events,Conditions,WindDirDegrees,DateUTC
12:53 AM,75.0,60.1,60,30.13,10.0,ENE,9.2,-,N/A,,Scattered Clouds,70,2013-04-25 04:53:00
1:53 AM,73.9,60.1,62,30.11,10.0,East,11.5,-,N/A,,Scattered Clouds,100,2013-04-25 05:53:00
2:53 AM,73.9,61.0,64,30.09,10.0,East,9.2,-,N/A,,Partly Cloudy,90,2013-04-25 06:53:00
3:53 AM,73.9,59.0,59,30.09,10.0,East,9.2,-,N/A,,Partly Cloudy,90,2013-04-25 07:53:00
4:53 AM,72.0,60.1,66,30.09,10.0,East,9.2,-,N/A,,Partly Cloudy,100,2013-04-25 08:53:00
5:53 AM,73.0,62.1,68,30.10,10.0,East,10.4,-,N/A,,Scattered Clouds,100,2013-04-25 09:53:00
6:53 AM,73.0,57.9,59,30.13,10.0,East,4.6,-,N/A,,Scattered Clouds,80,2013-04-25 10:53:00
7:53 AM,75.0,59.0,57,30.15,10.0,East,6.9,-,N/A,,Scattered Clouds,80,2013-04-25 11:53:00
8:53 AM,75.9,59.0,56,30.16,10.0,East,4.6,-,N/A,,Scattered Clouds,100,2013-04-25 12:53:00
9:53 AM,77.0,59.0,54,30.17,10.0,SE,4.6,-,N/A,,Scattered Clouds,140,2013-04-25 13:53:00
10:53 AM,78.1,60.1,54,30.18,10.0,East,9.2,-,N/A,,Scattered Clouds,90,2013-04-25 14:53:00
11:53 AM,78.1,60.1,54,30.18,10.0,East,6.9,-,N/A,,Scattered Clouds,100,2013-04-25 15:53:00
12:53 PM,80.1,59.0,48,30.18,10.0,ENE,8.1,-,N/A,,Scattered Clouds,70,2013-04-25 16:53:00
1:53 PM,80.1,59.0,48,30.17,10.0,ENE,8.1,16.1,N/A,,Scattered Clouds,70,2013-04-25 17:53:00
2:53 PM,80.1,59.0,48,30.17,10.0,ENE,11.5,-,N/A,,Scattered Clouds,60,2013-04-25 18:53:00
3:53 PM,80.1,57.0,45,30.15,10.0,ENE,12.7,-,N/A,,Scattered Clouds,70,2013-04-25 19:53:00
4:53 PM,80.1,59.0,48,30.14,10.0,NNE,8.1,18.4,N/A,,Scattered Clouds,30,2013-04-25 20:53:00
5:53 PM,78.1,60.1,54,30.15,10.0,NE,12.7,-,N/A,,Scattered Clouds,50,2013-04-25 21:53:00
6:53 PM,77.0,59.0,54,30.16,10.0,ENE,10.4,-,N/A,,Partly Cloudy,60,2013-04-25 22:53:00
7:53 PM,75.9,57.9,54,30.16,10.0,ENE,10.4,-,N/A,,Scattered Clouds,70,2013-04-25 23:53:00
8:53 PM,75.0,57.9,55,30.17,10.0,East,10.4,-,N/A,,Scattered Clouds,80,2013-04-26 00:53:00
9:53 PM,75.0,60.1,60,30.19,10.0,ENE,10.4,-,N/A,,Partly Cloudy,60,2013-04-26 01:53:00
10:53 PM,73.9,59.0,59,30.20,10.0,ENE,8.1,-,N/A,,Partly Cloudy,70,2013-04-26 02:53:00
11:53 PM,73.9,59.0,59,30.20,10.0,ENE,8.1,-,N/A,,Partly Cloudy,60,2013-04-26 03:53:00